Weather in Teramo

Italy     42°36′09″N   13°42′48″E
temp.,
°C
wind,
m/s
gust,
m/s
humid.,
%
clouds,
%
prec.,
mm/h
press.,
hPa
HPBL,
m
19 april, mon
mon1923:00+2wnw1197100 3.4 1018139
02:00+2wnw1298100 3.7 101685
05:00+3wnw119699 0.0 101689
08:00+3wnw119172 0.1 1016187
11:00+5ne217996 0.2 1016698
14:00+6ne227897 0.8 1015657
17:00+6ne2285100 0.6 1014461
20:00+5ene119681 1.3 101642
20 april, tue
tue2023:00+4ssw119463 0.1 101625
02:00+3wsw228942 0.2 101717
05:00+2wsw228024 0.0 101714
08:00+6wsw11735 0.0 101795
11:00+10ene115515 0.0 10171272
14:00+11ene325459 0.5 10161367
17:00+10ene226673 1.8 1016782
20:00+6ssw118786 3.5 101710
21 april, wed
wed2123:00+5sw33815 0.5 101928
02:00+4wsw33804 0.5 101932
05:00+4wsw43805 0.0 101932
08:00+8wsw22724 0.0 101987
11:00+12e2254100 0.0 10181368
14:00+13ene3356100 0.4 10181334
17:00+11ene3270100 1.4 1018501
20:00+8e118679 3.1 101811
22 april, thu
thu2223:00+6wsw22815 0.1 102014
02:00+6wsw32765 0.1 101919
05:00+5wsw327180 0.0 101917
08:00+9sw226599 0.0 101868
11:00+12ene1154100 0.0 1017994
14:00+13e125994 0.1 10161340
17:00+10n0180100 0.8 1016232
20:00+8sw1188100 1.0 101660
23 april, fri
fri2323:00+7wsw2286100 0.0 101721
02:00+8wsw2281100 0.0 101621
05:00+7nw1181100 0.0 101613
08:00+9n1182100 0.0 1016133
11:00+9ne2287100 0.1 1017378
14:00+10nne2385100 0.6 1017601
17:00+9ne4495100 1.6 1017609
20:00+7nne2398100 2.1 1018206